Date String (YYYY-MM-DD hh:mm:ss) UTC,Instrument flags,Ambient pressure (hPa),Sample flow (lpm),Bypass flow (lpm),Sample temperature (°C),Ambient temperature (°C),ASC tube jacket temperature (°C),LED temperature (°C),Box temperature (°C),Sample RH (%),Span deviation,Mass concentration (μg/m³),Mass concentration (μg/m³),Mass concentration (μg/m³)
DateTimeUTC,F1_M11,P_M11,Q1_M11,Q2_M11,T1_M11,T2_M11,T3_M11,T4_M11,T5_M11,U1_M11,ZSPAN_M11,X0_M11,X2_M11,X1_M11
2022-03-01 07:00:00,,0828.4,5.00,0.00,26.4,25.5,00.0,35.6,28.1,07.2,0000.0,0002.02,0000.88,0000.54
2022-03-01 07:01:00,,0828.4,5.01,0.00,26.4,25.5,00.0,35.6,28.1,07.1,0000.0,0002.03,0000.88,0000.55
2022-03-01 07:02:00,,0828.4,5.00,0.00,26.4,25.5,00.0,35.5,28.1,07.2,0000.0,0002.19,0000.93,0000.55
2022-03-01 07:03:00,,0828.4,5.00,0.00,26.3,25.5,00.0,35.5,28.1,07.2,0000.0,0002.23,0000.93,0000.56
2022-03-01 07:04:00,,0828.5,5.01,0.00,26.3,25.4,00.0,35.5,28.1,07.2,0000.0,0002.27,0000.94,0000.57
2022-03-01 07:05:00,,0828.5,4.99,0.00,26.3,25.4,00.0,35.5,28.0,07.2,0000.0,0002.23,0000.96,0000.57
2022-03-01 07:06:00,,0828.7,4.98,0.00,26.3,25.4,00.0,35.5,28.0,07.2,0000.0,0002.36,0001.01,0000.57
2022-03-01 07:07:00,,0828.5,5.00,0.00,26.3,25.4,00.0,35.4,28.0,07.2,0000.0,0002.40,0001.00,0000.57
2022-03-01 07:08:00,,0828.7,5.00,0.00,26.2,25.4,00.0,35.4,28.0,07.2,0000.0,0002.62,0001.03,0000.56
2022-03-01 07:09:00,,0828.8,4.99,0.00,26.2,25.3,00.0,35.4,28.0,07.3,0000.0,0002.59,0001.03,0000.56
2022-03-01 07:10:00,,0828.4,5.00,0.00,26.2,25.3,00.0,35.4,27.9,07.4,0000.0,0002.45,0001.01,0000.55
2022-03-01 07:11:00,,0828.5,5.00,0.00,26.2,25.3,00.0,35.4,27.9,07.4,0000.0,0002.23,0001.01,0000.54
2022-03-01 07:12:00,,0828.4,5.00,0.00,26.2,25.3,00.0,35.3,27.9,07.4,0000.0,0002.21,0001.01,0000.54
2022-03-01 07:13:00,,0828.4,5.00,0.00,26.1,25.3,00.0,35.3,27.9,07.3,0000.0,0002.13,0000.99,0000.54
2022-03-01 07:14:00,,0828.4,5.01,0.00,26.1,25.3,00.0,35.3,27.9,07.5,0000.0,0002.09,0000.99,0000.54
2022-03-01 07:15:00,,0828.4,5.00,0.00,26.1,25.3,00.0,35.3,27.9,07.4,0000.0,0001.94,0000.95,0000.53
2022-03-01 07:16:00,,0828.3,5.00,0.00,26.1,25.3,00.0,35.3,27.8,07.4,0000.0,0001.86,0000.91,0000.52
2022-03-01 07:17:00,,0828.3,5.00,0.00,26.1,25.2,00.0,35.2,27.8,07.3,0000.0,0001.91,0000.96,0000.53
2022-03-01 07:18:00,,0828.3,5.00,0.00,26.0,25.2,00.0,35.2,27.8,07.3,0000.0,0001.76,0000.92,0000.52
2022-03-01 07:19:00,,0828.3,5.00,0.00,26.0,25.1,00.0,35.2,27.7,07.4,0000.0,0001.62,0000.92,0000.53
2022-03-01 07:20:00,,0828.3,4.99,0.00,26.0,25.1,00.0,35.2,27.7,07.6,0000.0,0001.60,0000.90,0000.52
2022-03-01 07:21:00,,0828.2,4.99,0.00,26.0,25.2,00.0,35.2,27.7,07.8,0000.0,0001.64,0000.92,0000.52
2022-03-01 07:22:00,,0828.1,4.99,0.00,26.0,25.2,00.0,35.2,27.8,07.7,0000.0,0001.67,0000.91,0000.52
2022-03-01 07:23:00,,0828.2,5.00,0.00,26.0,25.2,00.0,35.1,27.8,07.4,0000.0,0001.69,0000.93,0000.51
2022-03-01 07:24:00,,0828.1,5.01,0.00,26.0,25.2,00.0,35.1,27.7,07.5,0000.0,0001.72,0000.94,0000.51
2022-03-01 07:25:00,,0828.1,5.00,0.00,26.0,25.2,00.0,35.1,27.7,07.7,0000.0,0001.69,0000.93,0000.50
2022-03-01 07:26:00,,0828.3,5.00,0.00,26.0,25.2,00.0,35.1,27.7,07.7,0000.0,0001.62,0000.90,0000.50
2022-03-01 07:27:00,,0828.2,4.99,0.00,26.0,25.2,00.0,35.1,27.7,07.7,0000.0,0001.58,0000.90,0000.51
2022-03-01 07:28:00,,0828.2,4.98,0.00,26.0,25.2,00.0,35.1,27.7,07.5,0000.0,0001.76,0000.84,0000.50
2022-03-01 07:29:00,,0828.2,5.00,0.00,26.0,25.2,00.0,35.1,27.7,07.6,0000.0,0002.86,0000.87,0000.50
2022-03-01 07:30:00,,0828.1,5.01,0.00,26.0,25.3,00.0,35.1,27.7,07.7,0000.0,0002.91,0000.85,0000.50
2022-03-01 07:31:00,,0828.2,5.00,0.00,26.0,25.3,00.0,35.1,27.7,07.7,0000.0,0002.93,0000.85,0000.51
2022-03-01 07:32:00,,0828.1,5.01,0.00,26.0,25.3,00.0,35.1,27.7,07.7,0000.0,0002.91,0000.85,0000.51
2022-03-01 07:33:00,,0828.1,5.00,0.00,26.0,25.2,00.0,35.1,27.7,07.7,0000.0,0003.09,0000.91,0000.51
2022-03-01 07:34:00,,0828.2,5.01,0.00,26.0,25.2,00.0,35.0,27.6,07.5,0000.0,0004.23,0000.92,0000.51
2022-03-01 07:35:00,,0828.2,4.99,0.00,26.0,25.2,00.0,35.0,27.6,07.6,0000.0,0004.85,0000.91,0000.50
2022-03-01 07:36:00,,0828.1,5.00,0.00,26.0,25.2,00.0,35.1,27.7,07.5,0000.0,0004.91,0000.94,0000.51
2022-03-01 07:37:00,,0828.1,5.01,0.00,26.0,25.2,00.0,35.1,27.7,07.5,0000.0,0004.96,0000.95,0000.51
2022-03-01 07:38:00,,0828.2,5.00,0.00,26.0,25.2,00.0,35.1,27.7,07.5,0000.0,0004.92,0000.93,0000.51
2022-03-01 07:39:00,,0828.2,5.00,0.00,26.0,25.2,00.0,35.1,27.7,07.7,0000.0,0004.63,0000.93,0000.52
2022-03-01 07:40:00,,0828.1,5.00,0.00,25.9,25.1,00.0,35.0,27.7,07.6,0000.0,0004.02,0000.95,0000.52
2022-03-01 07:41:00,,0828.1,4.99,0.00,25.9,25.1,00.0,35.0,27.6,07.5,0000.0,0003.92,0000.94,0000.51
2022-03-01 07:42:00,,0828.1,5.00,0.00,25.8,25.0,00.0,35.0,27.6,07.5,0000.0,0004.30,0000.97,0000.51
2022-03-01 07:43:00,,0828.2,5.01,0.00,25.8,24.9,00.0,35.0,27.5,07.6,0000.0,0004.54,0000.97,0000.53
2022-03-01 07:44:00,,0828.2,4.99,0.00,25.8,24.9,00.0,35.0,27.5,07.5,0000.0,0004.42,0000.95,0000.53
2022-03-01 07:45:00,,0828.1,5.00,0.00,25.7,24.9,00.0,35.0,27.5,07.6,0000.0,0003.21,0000.93,0000.54
2022-03-01 07:46:00,,0828.1,5.00,0.00,25.7,24.9,00.0,34.9,27.5,07.6,0000.0,0002.60,0000.92,0000.54
2022-03-01 07:47:00,,0828.0,5.00,0.00,25.7,24.9,00.0,34.9,27.5,07.6,0000.0,0002.97,0000.92,0000.54
2022-03-01 07:48:00,,0828.0,5.01,0.00,25.7,24.9,00.0,34.9,27.4,07.6,0000.0,0003.15,0000.96,0000.55
2022-03-01 07:49:00,,0827.9,5.01,0.00,25.7,24.9,00.0,34.9,27.4,07.5,0000.0,0003.22,0000.98,0000.54
2022-03-01 07:50:00,,0827.9,5.01,0.00,25.7,24.9,00.0,34.9,27.5,07.5,0000.0,0002.99,0000.93,0000.53
2022-03-01 07:51:00,,0828.0,4.99,0.00,25.7,25.0,00.0,34.9,27.5,07.6,0000.0,0002.62,0000.88,0000.52
2022-03-01 07:52:00,,0828.0,5.00,0.00,25.7,25.0,00.0,34.8,27.5,07.7,0000.0,0002.61,0000.87,0000.52
2022-03-01 07:53:00,,0828.0,5.00,0.00,25.7,25.0,00.0,34.8,27.5,07.6,0000.0,0002.31,0000.87,0000.52
2022-03-01 07:54:00,,0828.0,5.00,0.00,25.7,25.0,00.0,34.8,27.5,07.7,0000.0,0002.23,0000.89,0000.51
2022-03-01 07:55:00,,0828.0,5.00,0.00,25.7,25.0,00.0,34.8,27.5,07.6,0000.0,0002.19,0000.86,0000.52
2022-03-01 07:56:00,,0828.0,5.01,0.00,25.8,25.0,00.0,34.8,27.5,07.6,0000.0,0002.17,0000.85,0000.51
2022-03-01 07:57:00,,0828.0,4.99,0.00,25.8,25.1,00.0,34.8,27.5,07.6,0000.0,0002.18,0000.88,0000.50
2022-03-01 07:58:00,,0827.9,5.00,0.00,25.7,25.0,00.0,34.8,27.5,07.5,0000.0,0001.83,0000.88,0000.50
2022-03-01 07:59:00,,0828.1,5.01,0.00,25.8,25.0,00.0,34.8,27.5,07.4,0000.0,0001.67,0000.86,0000.49
